Zurück zum Katalog

STARLINK-6252

AktivKommunikationVLEO
NORAD 56555·PAYLOAD·🇺🇸 United States

Gestartet May 14, 2023 von Cape Canaveral Space Force Station

Loading…

Nächste Überflüge (nächste 24 Stunden)

TLE

AktuellSource: CelesTrak SupGP

Epoche: Sep 15, 2026, 02:30 UTC

1 56555C 23065BE  26258.10465278 -.00026740  00000+0 -96867-3 0  2585
2 56555  42.9995 233.5535 0000689 261.3585 125.3073 15.27586908    18

Verfolge STARLINK-6252 in Echtzeit mit AllMySat

Download on the App Store